Back to catalog

USA 313

AliveMilitaryVLEO
NORAD 47295·PAYLOAD·🇺🇸 United States

Launched Dec 19, 2020 from Cape Canaveral Space Force Station

Loading…

Next Passes (next 24 hours)

TLE

StaleSource: Mike McCants

Epoch: May 28, 2023, 20:26 UTC

1 47295U 20101B   23148.85178512 0.00070000  00000-0  16435-2 0    07
2 47295  52.9951  94.9729 0008000  85.7004 274.2995 15.41419832    08

Track USA 313 in real time with AllMySat

Download on the App Store